Weather History for Mercury, NV

Change the Weather History Date:

Thursday, March 7, 2013

  Actual Average Record
Temperature  
Mean Temperature 49 °F -  
Max Temperature 54 °F 61 °F 72 °F (1997)
Min Temperature 44 °F 37 °F 30 °F (1998)
Degree Days  
Heating Degree Days 16    
Moisture  
Dew Point 27 °F    
Average Humidity 41    
Maximum Humidity 58    
Minimum Humidity 23    
Precipitation  
Precipitation 0.00 in - - ()
Sea Level Pressure  
Sea Level Pressure 29.80 in    
Wind  
Wind Speed 15 mph (SSW)    
Max Wind Speed 21 mph    
Max Gust Speed 30 mph    
Visibility 10 miles    
Events      
Averages and records for this station are not official NWS values.
T = Trace of Precipitation, MM = Missing Value Source: NWS Daily Summary

Daily Weather History Graph

Daily Weather History Graph

Search for Another Location

Airport:

Trip Planner

Search our weather history database for the weather conditions in past years. The results will help you decide how hot, cold, wet, or windy it might be!

Date:

Astronomy

Mar. 07, 2013 Rise Set
Actual Time 6:06 AM PST 5:44 PM PST
Civil Twilight 5:40 AM PST 6:10 PM PST
Nautical Twilight 5:10 AM PST 6:40 PM PST
Astronomical Twilight 4:40 AM PST 7:10 PM PST
Moon 3:03 AM PST (3/7) 1:42 PM PST (3/7)
Length of Visible Light 12h 30m
Length of Day
11h 38m
Waning Crescent, 19% of the Moon is Illuminated
Mar 7
Waning Crescent
Mar 11
New
Mar 19
First Quarter
Mar 27
Full
Apr 2
Last Quarter

Hourly Weather History & Observations

Time (PST) Temp. Windchill Dew Point Humidity Pressure Visibility Wind Dir Wind Speed Gust Speed Precip Events Conditions
12:05 AM 50.0 °F - 24.8 °F 37% 29.85 in 10.0 mi South 20.7 mph 29.9 mph N/A   Clear
12:52 AM 48.9 °F - 25.0 °F 39% 29.78 in 10.0 mi SSW 13.8 mph 24.2 mph N/A   Clear
1:52 AM 48.9 °F - 26.1 °F 41% 29.78 in 10.0 mi SSW 18.4 mph 23.0 mph N/A   Clear
2:52 AM 48.9 °F - 24.1 °F 38% 29.77 in 10.0 mi SSW 16.1 mph 23.0 mph N/A   Clear
3:52 AM 46.0 °F 39.6 °F 28.0 °F 50% 29.79 in 10.0 mi WSW 15.0 mph 20.7 mph N/A   Clear
4:52 AM 44.1 °F 38.6 °F 28.9 °F 55% 29.81 in 10.0 mi WSW 10.4 mph - N/A   Clear
5:52 AM 45.0 °F 37.9 °F 28.9 °F 53% 29.83 in 10.0 mi WSW 16.1 mph - N/A   Clear
6:52 AM 46.0 °F 41.0 °F 27.0 °F 47% 29.84 in 10.0 mi WSW 10.4 mph - N/A   Clear
7:52 AM 48.9 °F - 23.0 °F 36% 29.84 in 10.0 mi SSW 11.5 mph - N/A   Clear
8:52 AM 48.9 °F - 25.0 °F 39% 29.86 in 10.0 mi ESE 8.1 mph - N/A   Clear
9:52 AM 52.0 °F - 25.0 °F 35% 29.84 in 10.0 mi WSW 9.2 mph - N/A   Clear
10:52 AM 54.0 °F - 21.9 °F 29% 29.83 in 10.0 mi SW 15.0 mph - N/A   Clear
11:52 AM 55.0 °F - 26.1 °F 33% 29.83 in 10.0 mi SSW 13.8 mph 27.6 mph N/A   Clear
12:52 PM 54.0 °F - 27.0 °F 35% 29.81 in 10.0 mi SSW 18.4 mph 26.5 mph N/A   Clear
1:52 PM 54.0 °F - 28.0 °F 37% 29.80 in 10.0 mi South 17.3 mph 24.2 mph N/A   Clear
2:52 PM 54.0 °F - 27.0 °F 35% 29.79 in 10.0 mi South 16.1 mph 24.2 mph N/A   Clear
3:52 PM 54.0 °F - 27.0 °F 35% 29.77 in 10.0 mi SW 16.1 mph - N/A   Clear
4:52 PM 52.0 °F - 28.0 °F 40% 29.78 in 10.0 mi SSW 19.6 mph - N/A   Clear
5:52 PM 51.1 °F - 28.9 °F 43% 29.79 in 10.0 mi SSW 12.7 mph 23.0 mph N/A   Partly Cloudy
6:52 PM 50.0 °F - 30.0 °F 46% 29.79 in 10.0 mi WSW 9.2 mph - N/A   Clear
7:00 PM - - - N/A% - - North - - N/A   Unknown
7:52 PM 51.1 °F - 26.1 °F 38% 29.77 in 10.0 mi SSW 12.7 mph - N/A   Clear
8:52 PM 50.0 °F - 28.9 °F 44% 29.78 in 10.0 mi WSW 11.5 mph - N/A   Overcast
9:52 PM 48.0 °F - 32.0 °F 54% 29.76 in 10.0 mi SSW 8.1 mph - N/A   Scattered Clouds
10:52 PM 48.0 °F - 32.0 °F 54% 29.75 in 10.0 mi SSW 9.2 mph - N/A   Mostly Cloudy
11:52 PM 48.0 °F - 34.0 °F 58% 29.74 in 10.0 mi Calm Calm - N/A   Overcast